BTK6762 WAAA-WAMM

Flight info

Callsign BTK6762
Flight time 1h 27m
Altitude 35000
Route VENRU W32 LUANG
Aircraft A320/M-VGDW/C

Departure

Time 2026-04-24 04:25
Airport Sultan Hasanuddin International Airport (WAAA)

Arrival

Time 2026-04-24 05:52
Airport Sam Ratulangi International Airport (WAMM)
Time Latitude Longitude Altitude Speed Heading
2026-04-24 04:04 -5.07857 119.54662 49 ft 0 kts 300°
2026-04-24 04:14 -5.07860 119.54668 75 ft 2 kts 295°
2026-04-24 04:14 -5.07868 119.54683 76 ft 2 kts 298°
2026-04-24 04:14 -5.07876 119.54697 49 ft 2 kts 307°
2026-04-24 04:15 -5.07889 119.54708 47 ft 2 kts 342°
2026-04-24 04:15 -5.07905 119.54710 49 ft 2 kts 14°
2026-04-24 04:15 -5.07914 119.54707 46 ft 1 kts 30°
2026-04-24 04:15 -5.07915 119.54707 46 ft 0 kts 30°
2026-04-24 04:16 -5.07914 119.54707 46 ft 1 kts 28°
2026-04-24 04:16 -5.07904 119.54709 49 ft 2 kts 16°
2026-04-24 04:16 -5.07879 119.54726 47 ft 5 kts 34°
2026-04-24 04:17 -5.07848 119.54746 49 ft 5 kts 34°
2026-04-24 04:17 -5.07819 119.54767 49 ft 5 kts 39°
2026-04-24 04:17 -5.07788 119.54788 49 ft 5 kts 31°
2026-04-24 04:17 -5.07757 119.54806 49 ft 5 kts 31°
2026-04-24 04:18 -5.07730 119.54819 49 ft 1 kts 25°
2026-04-24 04:18 -5.07728 119.54820 49 ft 0 kts 25°
2026-04-24 04:18 -5.07727 119.54820 49 ft 0 kts 25°
2026-04-24 04:19 -5.07697 119.54832 49 ft 6 kts 17°
2026-04-24 04:20 -5.07632 119.54851 49 ft 14 kts 20°
2026-04-24 04:20 -5.07571 119.54916 49 ft 14 kts 86°
2026-04-24 04:20 -5.07582 119.55010 49 ft 13 kts 99°
2026-04-24 04:20 -5.07606 119.55097 46 ft 13 kts 94°
2026-04-24 04:21 -5.07555 119.55162 49 ft 13 kts 25°
2026-04-24 04:21 -5.07470 119.55210 49 ft 17 kts 30°
2026-04-24 04:21 -5.07367 119.55262 49 ft 16 kts 31°
2026-04-24 04:21 -5.07276 119.55329 49 ft 16 kts 33°
2026-04-24 04:22 -5.07178 119.55385 49 ft 16 kts 25°
2026-04-24 04:22 -5.07080 119.55437 49 ft 16 kts 31°
2026-04-24 04:22 -5.06987 119.55493 49 ft 16 kts 31°
2026-04-24 04:22 -5.06891 119.55544 49 ft 15 kts 29°
2026-04-24 04:23 -5.06799 119.55599 49 ft 15 kts 29°
2026-04-24 04:23 -5.06710 119.55652 49 ft 15 kts 34°
2026-04-24 04:23 -5.06670 119.55707 49 ft 10 kts 81°
2026-04-24 04:23 -5.06693 119.55767 48 ft 9 kts 129°
2026-04-24 04:24 -5.06735 119.55810 50 ft 8 kts 142°
2026-04-24 04:24 -5.06795 119.55803 49 ft 13 kts 206°
2026-04-24 04:24 -5.07102 119.55627 45 ft 88 kts 210°
2026-04-24 04:24 -5.07808 119.55214 52 ft 144 kts 210°
2026-04-24 04:25 -5.08719 119.54712 508 ft 148 kts 211°
2026-04-24 04:25 -5.09596 119.54200 1163 ft 144 kts 213°
2026-04-24 04:25 -5.10501 119.53660 1590 ft 156 kts 210°
2026-04-24 04:25 -5.11466 119.53103 2058 ft 165 kts 210°
2026-04-24 04:26 -5.12502 119.52519 2417 ft 178 kts 206°
2026-04-24 04:26 -5.13701 119.52051 2778 ft 192 kts 194°
2026-04-24 04:26 -5.15049 119.51816 3113 ft 207 kts 181°
2026-04-24 04:26 -5.16573 119.51806 3436 ft 230 kts 178°
2026-04-24 04:27 -5.18253 119.51820 3956 ft 252 kts 178°
2026-04-24 04:27 -5.20064 119.51831 4517 ft 271 kts 178°
2026-04-24 04:27 -5.21987 119.51839 5262 ft 280 kts 178°
2026-04-24 04:27 -5.23943 119.51844 6210 ft 282 kts 178°
2026-04-24 04:28 -5.25911 119.51848 7144 ft 284 kts 178°
2026-04-24 04:28 -5.27901 119.51852 8030 ft 288 kts 179°
2026-04-24 04:28 -5.29916 119.51855 8893 ft 292 kts 178°
2026-04-24 04:28 -5.31960 119.51861 9747 ft 296 kts 178°
2026-04-24 04:29 -5.34041 119.51868 10432 ft 304 kts 178°
2026-04-24 04:29 -5.36213 119.51922 10910 ft 320 kts 171°
2026-04-24 04:29 -5.38339 119.52584 11297 ft 333 kts 149°
2026-04-24 04:29 -5.40142 119.54095 11703 ft 347 kts 126°
2026-04-24 04:30 -5.41243 119.56283 12104 ft 361 kts 103°
2026-04-24 04:30 -5.41507 119.58833 12468 ft 377 kts 91°
2026-04-24 04:30 -5.41584 119.61521 12756 ft 394 kts 91°
2026-04-24 04:30 -5.41640 119.64303 13268 ft 402 kts 91°
2026-04-24 04:31 -5.41688 119.67121 13926 ft 405 kts 90°
2026-04-24 04:31 -5.41738 119.69955 14552 ft 407 kts 90°
2026-04-24 04:31 -5.41793 119.72803 15168 ft 410 kts 91°
2026-04-24 04:31 -5.41724 119.75670 15753 ft 413 kts 84°
2026-04-24 04:32 -5.41198 119.78512 16331 ft 416 kts 74°
2026-04-24 04:32 -5.40198 119.81236 16930 ft 418 kts 65°
2026-04-24 04:32 -5.38985 119.83900 17500 ft 421 kts 65°
2026-04-24 04:32 -5.37779 119.86547 18030 ft 424 kts 65°
2026-04-24 04:33 -5.36549 119.89249 18493 ft 428 kts 65°
2026-04-24 04:33 -5.35311 119.91969 18928 ft 430 kts 65°
2026-04-24 04:33 -5.34064 119.94717 19385 ft 434 kts 66°
2026-04-24 04:33 -5.32814 119.97478 19850 ft 436 kts 66°
2026-04-24 04:34 -5.31555 120.00255 20306 ft 439 kts 66°
2026-04-24 04:34 -5.30287 120.03050 20765 ft 442 kts 66°
2026-04-24 04:34 -5.29009 120.05864 21217 ft 444 kts 66°
2026-04-24 04:34 -5.27720 120.08694 21656 ft 447 kts 66°
2026-04-24 04:35 -5.26421 120.11538 22061 ft 450 kts 65°
2026-04-24 04:35 -5.25108 120.14405 22465 ft 454 kts 65°
2026-04-24 04:35 -5.23789 120.17289 22862 ft 457 kts 66°
2026-04-24 04:35 -5.22491 120.20161 23249 ft 460 kts 66°
2026-04-24 04:36 -5.21231 120.23117 23596 ft 463 kts 68°
2026-04-24 04:36 -5.20015 120.26115 23916 ft 465 kts 68°
2026-04-24 04:36 -5.18822 120.29140 24262 ft 467 kts 69°
2026-04-24 04:36 -5.17633 120.32176 24601 ft 469 kts 69°
2026-04-24 04:37 -5.16436 120.35227 24931 ft 470 kts 69°
2026-04-24 04:37 -5.15222 120.38281 25247 ft 472 kts 68°
2026-04-24 04:37 -5.13986 120.41340 25559 ft 474 kts 68°
2026-04-24 04:37 -5.12734 120.44410 25860 ft 476 kts 68°
2026-04-24 04:38 -5.11467 120.47484 26160 ft 478 kts 66°
2026-04-24 04:38 -5.09904 120.50429 26504 ft 479 kts 58°
2026-04-24 04:38 -5.07899 120.53102 26941 ft 479 kts 49°
2026-04-24 04:38 -5.05670 120.55511 27400 ft 477 kts 48°
2026-04-24 04:39 -5.03411 120.57941 27877 ft 475 kts 48°
2026-04-24 04:39 -5.01163 120.60363 28338 ft 474 kts 48°
2026-04-24 04:39 -4.98915 120.62780 28777 ft 473 kts 48°
2026-04-24 04:39 -4.96676 120.65187 29208 ft 472 kts 48°
2026-04-24 04:40 -4.94444 120.67593 29625 ft 471 kts 48°
2026-04-24 04:40 -4.92213 120.69999 30016 ft 470 kts 48°
2026-04-24 04:40 -4.89987 120.72389 30350 ft 469 kts 48°
2026-04-24 04:40 -4.87760 120.74775 30670 ft 468 kts 48°
2026-04-24 04:41 -4.85541 120.77156 30998 ft 467 kts 49°
2026-04-24 04:41 -4.83324 120.79537 31314 ft 466 kts 49°
2026-04-24 04:41 -4.81143 120.81878 31623 ft 465 kts 49°
2026-04-24 04:41 -4.78937 120.84246 31936 ft 464 kts 49°
2026-04-24 04:42 -4.76736 120.86610 32228 ft 463 kts 49°
2026-04-24 04:42 -4.74536 120.88973 32511 ft 463 kts 49°
2026-04-24 04:42 -4.72342 120.91330 32809 ft 462 kts 49°
2026-04-24 04:42 -4.70156 120.93684 33087 ft 461 kts 49°
2026-04-24 04:43 -4.67946 120.96010 33352 ft 461 kts 44°
2026-04-24 04:43 -4.65347 120.97899 33656 ft 464 kts 30°
2026-04-24 04:43 -4.62352 120.99114 33917 ft 466 kts 20°
2026-04-24 04:43 -4.59271 121.00110 34114 ft 466 kts 20°
2026-04-24 04:44 -4.56167 121.01083 34241 ft 468 kts 19°
2026-04-24 04:44 -4.53053 121.02041 34375 ft 469 kts 19°
2026-04-24 04:44 -4.49929 121.02998 34534 ft 469 kts 19°
2026-04-24 04:44 -4.46812 121.03957 34734 ft 469 kts 19°
2026-04-24 04:45 -4.43733 121.04912 34858 ft 470 kts 19°
2026-04-24 04:45 -4.40606 121.05886 34903 ft 471 kts 19°
2026-04-24 04:45 -4.34366 121.07839 34910 ft 470 kts 20°
2026-04-24 04:46 -4.28128 121.09798 34905 ft 470 kts 20°
2026-04-24 04:46 -4.21894 121.11749 34904 ft 470 kts 19°
2026-04-24 04:47 -4.15652 121.13691 34901 ft 470 kts 19°
2026-04-24 04:47 -4.09412 121.15634 34902 ft 469 kts 19°
2026-04-24 04:48 -4.03173 121.17586 34904 ft 470 kts 20°
2026-04-24 04:48 -3.96979 121.19529 34911 ft 470 kts 20°
2026-04-24 04:49 -3.90744 121.21472 34912 ft 470 kts 19°
2026-04-24 04:49 -3.84498 121.23409 34917 ft 470 kts 19°
2026-04-24 04:50 -3.78255 121.25354 34922 ft 470 kts 19°
2026-04-24 04:50 -3.72009 121.27308 34923 ft 470 kts 20°
2026-04-24 04:51 -3.65764 121.29260 34931 ft 470 kts 19°
2026-04-24 04:51 -3.59549 121.31198 34938 ft 470 kts 19°
2026-04-24 04:52 -3.53303 121.33147 34942 ft 470 kts 19°
2026-04-24 04:52 -3.47052 121.35098 34940 ft 470 kts 19°
2026-04-24 04:53 -3.40800 121.37047 34941 ft 470 kts 19°
2026-04-24 04:53 -3.34547 121.38994 34935 ft 471 kts 19°
2026-04-24 04:54 -3.28293 121.40940 34928 ft 471 kts 19°
2026-04-24 04:54 -3.22085 121.42878 34926 ft 471 kts 19°
2026-04-24 04:55 -3.15832 121.44828 34920 ft 471 kts 19°
2026-04-24 04:55 -3.09579 121.46774 34917 ft 471 kts 19°
2026-04-24 04:56 -3.03327 121.48719 34911 ft 471 kts 19°
2026-04-24 04:56 -2.97072 121.50669 34909 ft 471 kts 19°
2026-04-24 04:57 -2.90815 121.52615 34907 ft 471 kts 19°
2026-04-24 04:57 -2.84600 121.54554 34907 ft 471 kts 19°
2026-04-24 04:58 -2.78344 121.56504 34907 ft 471 kts 19°
2026-04-24 04:58 -2.72087 121.58452 34909 ft 471 kts 19°
2026-04-24 04:59 -2.65822 121.60392 34910 ft 471 kts 19°
2026-04-24 04:59 -2.59564 121.62337 34910 ft 471 kts 19°
2026-04-24 05:00 -2.53307 121.64290 34909 ft 471 kts 19°
2026-04-24 05:00 -2.47084 121.66232 34907 ft 472 kts 19°
2026-04-24 05:01 -2.41067 121.68745 34888 ft 468 kts 34°
2026-04-24 05:01 -2.35978 121.72740 34891 ft 466 kts 43°
2026-04-24 05:02 -2.31080 121.76991 34894 ft 466 kts 43°
2026-04-24 05:02 -2.26178 121.81227 34888 ft 466 kts 43°
2026-04-24 05:03 -2.21271 121.85461 34890 ft 466 kts 43°
2026-04-24 05:03 -2.16496 121.89583 34892 ft 466 kts 43°
2026-04-24 05:04 -2.11589 121.93831 34892 ft 466 kts 43°
2026-04-24 05:04 -2.06677 121.98072 34886 ft 467 kts 42°
2026-04-24 05:05 -2.01767 122.02322 34883 ft 467 kts 43°
2026-04-24 05:05 -1.96850 122.06573 34885 ft 467 kts 42°
2026-04-24 05:06 -1.91966 122.10783 34886 ft 467 kts 42°
2026-04-24 05:06 -1.87043 122.15030 34885 ft 467 kts 42°
2026-04-24 05:07 -1.82131 122.19279 34891 ft 467 kts 42°
2026-04-24 05:07 -1.77213 122.23536 34888 ft 467 kts 42°
2026-04-24 05:08 -1.72299 122.27783 34894 ft 467 kts 42°
2026-04-24 05:08 -1.68206 122.31313 34893 ft 467 kts 42°
2026-04-24 05:09 -1.62490 122.36252 34891 ft 467 kts 42°
2026-04-24 05:09 -1.57575 122.40495 34895 ft 467 kts 42°
2026-04-24 05:10 -1.52661 122.44745 34895 ft 467 kts 42°
2026-04-24 05:10 -1.48582 122.48268 34895 ft 467 kts 42°
2026-04-24 05:11 -1.42833 122.53225 34900 ft 467 kts 42°
2026-04-24 05:11 -1.38749 122.56754 34899 ft 467 kts 42°
2026-04-24 05:12 -1.33845 122.60997 34907 ft 466 kts 42°
2026-04-24 05:12 -1.28937 122.65236 34907 ft 466 kts 42°
2026-04-24 05:13 -1.21575 122.71597 34908 ft 466 kts 42°
2026-04-24 05:14 -1.16695 122.75801 34907 ft 466 kts 42°
2026-04-24 05:14 -1.11787 122.80039 34906 ft 466 kts 42°
2026-04-24 05:15 -1.06876 122.84284 34904 ft 466 kts 42°
2026-04-24 05:15 -1.01965 122.88518 34905 ft 466 kts 42°
2026-04-24 05:16 -0.97052 122.92751 34903 ft 466 kts 42°
2026-04-24 05:16 -0.92145 122.96991 34900 ft 466 kts 42°
2026-04-24 05:17 -0.87243 123.01238 34898 ft 466 kts 42°
2026-04-24 05:17 -0.82412 123.05494 34891 ft 466 kts 43°
2026-04-24 05:18 -0.77572 123.09806 34891 ft 466 kts 43°
2026-04-24 05:18 -0.72730 123.14114 34891 ft 466 kts 43°
2026-04-24 05:19 -0.67884 123.18410 34893 ft 466 kts 43°
2026-04-24 05:19 -0.63030 123.22694 34889 ft 465 kts 43°
2026-04-24 05:20 -0.58206 123.26945 34890 ft 465 kts 43°
2026-04-24 05:20 -0.53362 123.31234 34888 ft 465 kts 43°
2026-04-24 05:21 -0.48515 123.35523 34886 ft 465 kts 43°
2026-04-24 05:21 -0.43672 123.39815 34882 ft 465 kts 43°
2026-04-24 05:22 -0.38821 123.44108 34879 ft 465 kts 43°
2026-04-24 05:22 -0.34006 123.48363 34878 ft 466 kts 43°
2026-04-24 05:23 -0.29157 123.52658 34877 ft 466 kts 43°
2026-04-24 05:23 -0.24317 123.56951 34878 ft 465 kts 43°
2026-04-24 05:24 -0.19471 123.61240 34878 ft 465 kts 43°
2026-04-24 05:24 -0.14624 123.65527 34878 ft 465 kts 43°
2026-04-24 05:25 -0.09807 123.69782 34881 ft 463 kts 43°
2026-04-24 05:25 -0.05019 123.74019 34912 ft 459 kts 43°
2026-04-24 05:26 -0.00232 123.78253 34903 ft 459 kts 44°
2026-04-24 05:26 0.04551 123.82489 34897 ft 460 kts 43°
2026-04-24 05:27 0.09336 123.86722 34892 ft 459 kts 43°
2026-04-24 05:27 0.14125 123.90957 34885 ft 460 kts 43°
2026-04-24 05:28 0.18883 123.95168 34885 ft 460 kts 43°
2026-04-24 05:28 0.23677 123.99396 34886 ft 460 kts 43°
2026-04-24 05:29 0.28471 124.03631 34889 ft 460 kts 43°
2026-04-24 05:29 0.33260 124.07870 34887 ft 460 kts 43°
2026-04-24 05:30 0.38046 124.12111 34889 ft 460 kts 43°
2026-04-24 05:30 0.42838 124.16349 34894 ft 460 kts 43°
2026-04-24 05:31 0.47602 124.20556 34892 ft 460 kts 43°
2026-04-24 05:31 0.52397 124.24790 34895 ft 460 kts 43°
2026-04-24 05:32 0.57191 124.29031 34890 ft 461 kts 43°
2026-04-24 05:32 0.61974 124.33262 34800 ft 454 kts 43°
2026-04-24 05:32 0.64311 124.35326 34115 ft 444 kts 43°
2026-04-24 05:33 0.66629 124.37375 32830 ft 445 kts 43°
2026-04-24 05:33 0.68961 124.39443 31286 ft 452 kts 43°
2026-04-24 05:33 0.71333 124.41547 29557 ft 461 kts 43°
2026-04-24 05:34 0.76108 124.45770 27114 ft 449 kts 43°
2026-04-24 05:34 0.78426 124.47817 26380 ft 444 kts 43°
2026-04-24 05:34 0.80739 124.49857 25347 ft 444 kts 43°
2026-04-24 05:34 0.83056 124.51902 24336 ft 445 kts 43°
2026-04-24 05:35 0.85366 124.53943 23550 ft 441 kts 43°
2026-04-24 05:35 0.87651 124.55965 22743 ft 436 kts 43°
2026-04-24 05:35 0.89912 124.57964 21998 ft 432 kts 43°
2026-04-24 05:35 0.92152 124.59943 21238 ft 427 kts 43°
2026-04-24 05:36 0.94361 124.61894 20491 ft 422 kts 43°
2026-04-24 05:36 0.96551 124.63827 19742 ft 418 kts 43°
2026-04-24 05:36 0.98687 124.65713 19001 ft 413 kts 43°
2026-04-24 05:36 1.00827 124.67605 18252 ft 408 kts 43°
2026-04-24 05:37 1.02942 124.69478 17416 ft 404 kts 43°
2026-04-24 05:37 1.05031 124.71329 16677 ft 399 kts 43°
2026-04-24 05:37 1.07099 124.73162 15953 ft 395 kts 43°
2026-04-24 05:37 1.09141 124.74972 15209 ft 390 kts 43°
2026-04-24 05:38 1.11162 124.76764 14456 ft 387 kts 43°
2026-04-24 05:38 1.13163 124.78535 13716 ft 382 kts 42°
2026-04-24 05:38 1.15137 124.80282 12918 ft 377 kts 42°
2026-04-24 05:38 1.17094 124.82014 12183 ft 373 kts 42°
2026-04-24 05:39 1.19027 124.83721 11461 ft 369 kts 42°
2026-04-24 05:39 1.20937 124.85408 10760 ft 361 kts 43°
2026-04-24 05:39 1.22723 124.86988 10440 ft 334 kts 43°
2026-04-24 05:39 1.24391 124.88462 10251 ft 307 kts 42°
2026-04-24 05:40 1.25924 124.89818 10113 ft 281 kts 43°
2026-04-24 05:40 1.27327 124.91060 10042 ft 260 kts 43°
2026-04-24 05:40 1.28611 124.92194 9918 ft 235 kts 43°
2026-04-24 05:40 1.29815 124.93259 9400 ft 231 kts 43°
2026-04-24 05:41 1.31027 124.94334 8688 ft 235 kts 43°
2026-04-24 05:41 1.32251 124.95420 8037 ft 235 kts 44°
2026-04-24 05:41 1.33191 124.96718 7473 ft 230 kts 71°
2026-04-24 05:41 1.33391 124.98270 6928 ft 227 kts 98°
2026-04-24 05:42 1.32814 124.99726 6445 ft 230 kts 126°
2026-04-24 05:42 1.31605 125.00735 6034 ft 233 kts 154°
2026-04-24 05:42 1.30093 125.01303 5630 ft 232 kts 152°
2026-04-24 05:42 1.28966 125.02374 5257 ft 224 kts 112°
2026-04-24 05:43 1.28740 125.03880 4863 ft 221 kts 82°
2026-04-24 05:43 1.29276 125.05301 4441 ft 221 kts 53°
2026-04-24 05:43 1.30452 125.06280 4213 ft 224 kts 24°
2026-04-24 05:43 1.31973 125.06574 4208 ft 227 kts 356°
2026-04-24 05:44 1.33539 125.06038 4219 ft 250 kts 324°
2026-04-24 05:44 1.34615 125.04690 4219 ft 252 kts 294°
2026-04-24 05:44 1.35279 125.03054 4221 ft 254 kts 292°
2026-04-24 05:44 1.35928 125.01411 4226 ft 255 kts 292°
2026-04-24 05:45 1.36577 124.99764 4230 ft 255 kts 292°
2026-04-24 05:45 1.37228 124.98117 4235 ft 255 kts 292°
2026-04-24 05:45 1.37876 124.96489 4229 ft 256 kts 292°
2026-04-24 05:45 1.38534 124.94838 4232 ft 256 kts 292°
2026-04-24 05:46 1.39405 124.93303 4214 ft 253 kts 316°
2026-04-24 05:46 1.40864 124.92369 4221 ft 251 kts 345°
2026-04-24 05:46 1.42567 124.92209 4242 ft 244 kts
2026-04-24 05:46 1.44241 124.92273 4234 ft 238 kts
2026-04-24 05:47 1.45898 124.92333 4223 ft 237 kts
2026-04-24 05:47 1.47479 124.92395 3917 ft 220 kts
2026-04-24 05:47 1.49027 124.92456 3007 ft 230 kts
2026-04-24 05:47 1.50627 124.92479 2414 ft 219 kts
2026-04-24 05:48 1.52111 124.92569 2474 ft 217 kts
2026-04-24 05:48 1.53609 124.92459 2627 ft 220 kts 345°
2026-04-24 05:48 1.54944 124.91716 2710 ft 224 kts 317°
2026-04-24 05:48 1.55699 124.90363 2808 ft 230 kts 282°
2026-04-24 05:49 1.55624 124.88732 3083 ft 253 kts 250°
2026-04-24 05:49 1.54588 124.87211 3353 ft 283 kts 219°
2026-04-24 05:49 1.52755 124.86244 3414 ft 320 kts 193°
2026-04-24 05:49 1.50506 124.85937 3813 ft 312 kts 181°
2026-04-24 05:50 1.48476 124.86146 4095 ft 284 kts 159°
2026-04-24 05:50 1.46910 124.87167 3807 ft 271 kts 125°
2026-04-24 05:50 1.46265 124.88848 3581 ft 254 kts 94°
2026-04-24 05:50 1.46203 124.90591 3103 ft 251 kts 81°
2026-04-24 05:51 1.46970 124.92098 2459 ft 244 kts 37°
2026-04-24 05:51 1.48520 124.92510 1867 ft 232 kts 353°
2026-04-24 05:51 1.50075 124.92402 1407 ft 215 kts
2026-04-24 05:51 1.51541 124.92525 905 ft 210 kts
2026-04-24 05:52 1.52961 124.92559 551 ft 197 kts
2026-04-24 05:52 1.54274 124.92606 336 ft 174 kts
2026-04-24 05:52 1.55142 124.92648 336 ft 78 kts
2026-04-24 05:52 1.55386 124.92646 335 ft 1 kts 359°
2026-04-24 05:53 1.55422 124.92645 338 ft 15 kts 359°
2026-04-24 05:53 1.55526 124.92647 338 ft 15 kts
2026-04-24 05:53 1.55632 124.92639 334 ft 16 kts 341°
2026-04-24 05:53 1.55667 124.92547 337 ft 15 kts 269°
2026-04-24 05:54 1.55593 124.92492 337 ft 15 kts 183°
2026-04-24 05:54 1.55488 124.92487 337 ft 15 kts 183°
2026-04-24 05:54 1.55383 124.92479 337 ft 15 kts 185°
2026-04-24 05:54 1.55279 124.92474 337 ft 15 kts 178°
2026-04-24 05:55 1.55177 124.92494 336 ft 15 kts 169°
2026-04-24 05:55 1.55077 124.92463 335 ft 15 kts 191°
2026-04-24 05:55 1.54974 124.92459 336 ft 17 kts 177°
2026-04-24 05:55 1.54764 124.92461 336 ft 34 kts 181°
2026-04-24 05:56 1.54542 124.92454 336 ft 31 kts 180°
2026-04-24 05:56 1.54398 124.92416 337 ft 14 kts 234°
2026-04-24 05:56 1.54394 124.92350 335 ft 2 kts 274°
2026-04-24 05:56 1.54395 124.92346 336 ft 0 kts 274°